Location: Dammartin
(48.9032°N, 1.6195°E)
Time: 22:39:03
(UTC+00:00)

YUBILEINY - Pass Details

Date: 10 December 2023
Orbit: 1479 x 1508 km, 82.5° (Epoch: 04 March)

Event Time Altitude Azimuth Distance (km) Brightness Sun altitude
Rises 17:17:20 0° 351° (N) 4,630 ? -12.6°
Reaches altitude 10° 17:21:32 10° 9° (N) 3,641 ? -13.2°
Maximum altitude 17:27:17 19° 51° (NE) 3,000 ? -14.1°
Enters shadow 17:28:47 18° 64° (ENE) 3,045 ? -14.3°
